When you browse on this site, cookies collect data to enhance your experience and personalize the content and advertising you see.
Visit our Privacy Policy to learn more. By continuing to use the site, you agree to this use of cookies and data.
  • In Switzerland
  • List of Countries
  • For 7 days
  • Water Temperature
  • Satellite Maps
  • Weather Map
  • Weather Widgets
  • user-avatar
    Login

    Hourly Weather Gloucester

    Today, 14 December, Friday

    Time Temperature Precipitation Wind Pressure Humidity
    00:00 -1°C° 0 mm 3 mps 759 mmHg 87%
    01:00 -1°C° 0 mm 3 mps 759 mmHg 87%
    02:00 -2°C° 0 mm 3 mps 759 mmHg 87%
    03:00 -2°C° 0 mm 3 mps 759 mmHg 86%
    04:00 -2°C° 0 mm 3 mps 759 mmHg 85%
    05:00 -1°C° 0 mm 3 mps 759 mmHg 84%
    06:00 -1°C° 0 mm 3 mps 759 mmHg 82%
    07:00 -1°C° 0 mm 3 mps 760 mmHg 81%
    08:00 -1°C° 0 mm 3 mps 760 mmHg 81%
    09:00 -1°C° 0 mm 3 mps 760 mmHg 80%
    10:00 0°C° 0 mm 3 mps 760 mmHg 74%
    11:00 0°C° 0 mm 4 mps 760 mmHg 69%
    12:00 +1°C° 0 mm 4 mps 760 mmHg 64%
    13:00 +1°C° 0 mm 4 mps 760 mmHg 66%
    14:00 +1°C° 0 mm 4 mps 760 mmHg 68%
    15:00 +1°C° 0 mm 4 mps 760 mmHg 70%
    16:00 +1°C° 0 mm 4 mps 759 mmHg 73%
    17:00 0°C° 0 mm 4 mps 759 mmHg 76%
    18:00 -1°C° 0 mm 5 mps 759 mmHg 79%
    19:00 -1°C° 0 mm 5 mps 759 mmHg 79%
    20:00 -1°C° 0 mm 5 mps 759 mmHg 79%
    21:00 -1°C° 0 mm 5 mps 759 mmHg 79%
    22:00 -1°C° 0 mm 5 mps 759 mmHg 78%
    23:00 -1°C° 0 mm 5 mps 758 mmHg 78%

    Tomorrow, 15 December, Saturday

    Time Temperature Precipitation Wind Pressure Humidity
    00:00 -1°C° 0 mm 5 mps 758 mmHg 77%
    01:00 -1°C° 0 mm 6 mps 757 mmHg 76%
    02:00 -1°C° 0 mm 6 mps 757 mmHg 75%
    03:00 0°C° 0 mm 7 mps 756 mmHg 74%
    04:00 0°C° 0.3 mm 7 mps 755 mmHg 75%
    05:00 0°C° 0.3 mm 7 mps 754 mmHg 76%
    06:00 0°C° 0.3 mm 8 mps 753 mmHg 77%
    07:00 0°C° 0.5 mm 8 mps 753 mmHg 79%
    08:00 0°C° 0.5 mm 9 mps 752 mmHg 80%
    09:00 0°C° 0.5 mm 9 mps 751 mmHg 82%
    10:00 +1°C° 0.4 mm 9 mps 750 mmHg 83%
    11:00 +1°C° 0.4 mm 9 mps 749 mmHg 85%
    12:00 +1°C° 0.4 mm 9 mps 748 mmHg 87%
    13:00 +2°C° 1.4 mm 9 mps 747 mmHg 88%
    14:00 +3°C° 1.4 mm 10 mps 745 mmHg 90%
    15:00 +3°C° 1.4 mm 10 mps 744 mmHg 92%
    16:00 +5°C° 1.7 mm 10 mps 743 mmHg 90%
    17:00 +6°C° 1.7 mm 9 mps 742 mmHg 89%
    18:00 +8°C° 1.7 mm 9 mps 741 mmHg 87%
    19:00 +7°C° 0 mm 9 mps 742 mmHg 85%
    20:00 +6°C° 0 mm 8 mps 742 mmHg 83%
    21:00 +5°C° 0 mm 8 mps 743 mmHg 81%
    22:00 +4°C° 0 mm 7 mps 744 mmHg 82%
    23:00 +4°C° 0 mm 6 mps 745 mmHg 82%

    Day after tomorrow, 16 December, Sunday

    Time Temperature Precipitation Wind Pressure Humidity
    00:00 +3°C° 0 mm 5 mps 746 mmHg 82%
    01:00 +3°C° 0 mm 5 mps 746 mmHg 84%
    02:00 +3°C° 0 mm 4 mps 747 mmHg 86%
    03:00 +3°C° 0 mm 4 mps 747 mmHg 88%
    04:00 +3°C° 0.1 mm 4 mps 747 mmHg 89%
    05:00 +3°C° 0.1 mm 4 mps 747 mmHg 90%
    06:00 +3°C° 0.1 mm 3 mps 748 mmHg 91%
    07:00 +3°C° 0 mm 3 mps 748 mmHg 91%
    08:00 +3°C° 0 mm 3 mps 748 mmHg 91%
    09:00 +3°C° 0 mm 3 mps 748 mmHg 91%
    10:00 +4°C° 0 mm 4 mps 748 mmHg 88%
    11:00 +5°C° 0 mm 4 mps 748 mmHg 85%
    12:00 +6°C° 0 mm 4 mps 748 mmHg 82%
    13:00 +6°C° 0.4 mm 4 mps 748 mmHg 83%
    14:00 +6°C° 0.4 mm 4 mps 748 mmHg 85%
    15:00 +6°C° 0.4 mm 4 mps 748 mmHg 86%
    16:00 +5°C° 0.3 mm 3 mps 749 mmHg 88%
    17:00 +5°C° 0.3 mm 3 mps 749 mmHg 90%
    18:00 +4°C° 0.3 mm 3 mps 749 mmHg 92%
    19:00 +4°C° 0 mm 3 mps 750 mmHg 92%
    20:00 +5°C° 0 mm 2 mps 750 mmHg 92%
    21:00 +4°C° 0 mm 2 mps 750 mmHg 92%
    22:00 +4°C° 0 mm 2 mps 751 mmHg 91%
    23:00 +3°C° 0 mm 3 mps 751 mmHg 91%

    17 December, Monday

    Time Temperature Precipitation Wind Pressure Humidity
    00:00 +3°C° 0 mm 3 mps 752 mmHg 90%
    01:00 +3°C° 0 mm 3 mps 752 mmHg 91%
    02:00 +3°C° 0 mm 3 mps 752 mmHg 91%
    03:00 +3°C° 0 mm 3 mps 752 mmHg 91%
    04:00 +3°C° 0 mm 3 mps 753 mmHg 91%
    05:00 +3°C° 0 mm 3 mps 753 mmHg 91%
    06:00 +3°C° 0 mm 3 mps 753 mmHg 91%
    07:00 +3°C° 0 mm 3 mps 754 mmHg 91%
    08:00 +3°C° 0 mm 3 mps 754 mmHg 92%
    09:00 +3°C° 0 mm 3 mps 754 mmHg 92%
    10:00 +4°C° 0 mm 4 mps 754 mmHg 89%
    11:00 +5°C° 0 mm 4 mps 754 mmHg 86%
    12:00 +7°C° 0 mm 5 mps 754 mmHg 84%
    13:00 +7°C° 0 mm 5 mps 754 mmHg 85%
    14:00 +7°C° 0 mm 6 mps 753 mmHg 86%
    15:00 +7°C° 0 mm 6 mps 753 mmHg 87%
    16:00 +7°C° 0 mm 6 mps 753 mmHg 87%
    17:00 +8°C° 0 mm 7 mps 752 mmHg 88%
    18:00 +7°C° 0 mm 8 mps 752 mmHg 89%
    19:00 +7°C° 0.1 mm 8 mps 752 mmHg 88%
    20:00 +8°C° 0.1 mm 9 mps 751 mmHg 87%
    21:00 +8°C° 0.1 mm 9 mps 751 mmHg 87%
    22:00 +9°C° 0.2 mm 10 mps 750 mmHg 86%
    23:00 +9°C° 0.2 mm 10 mps 750 mmHg 85%

    18 December, Tuesday

    Time Temperature Precipitation Wind Pressure Humidity
    00:00 +9°C° 0.2 mm 11 mps 749 mmHg 84%
    01:00 +9°C° 0.1 mm 11 mps 749 mmHg 83%
    02:00 +9°C° 0.1 mm 12 mps 748 mmHg 82%
    03:00 +9°C° 0.1 mm 12 mps 748 mmHg 80%
    04:00 +9°C° 0.2 mm 12 mps 747 mmHg 78%
    05:00 +8°C° 0.2 mm 12 mps 746 mmHg 77%
    06:00 +8°C° 0.2 mm 12 mps 745 mmHg 75%
    07:00 +8°C° 0.7 mm 13 mps 744 mmHg 75%
    08:00 +8°C° 0.7 mm 14 mps 743 mmHg 75%
    09:00 +8°C° 0.7 mm 14 mps 742 mmHg 75%
    10:00 +7°C° 1.9 mm 13 mps 742 mmHg 79%
    11:00 +7°C° 1.9 mm 12 mps 742 mmHg 83%
    12:00 +7°C° 1.9 mm 10 mps 741 mmHg 87%
    13:00 +7°C° 0.9 mm 8 mps 741 mmHg 87%
    14:00 +8°C° 0.9 mm 7 mps 741 mmHg 86%
    15:00 +7°C° 0.9 mm 5 mps 741 mmHg 86%
    16:00 +7°C° 0.1 mm 5 mps 742 mmHg 86%
    17:00 +7°C° 0.1 mm 5 mps 742 mmHg 86%
    18:00 +6°C° 0.1 mm 5 mps 742 mmHg 86%
    19:00 +6°C° 0 mm 5 mps 743 mmHg 86%
    20:00 +5°C° 0 mm 6 mps 743 mmHg 85%
    21:00 +5°C° 0 mm 6 mps 743 mmHg 85%
    22:00 +5°C° 0.1 mm 6 mps 743 mmHg 85%
    23:00 +5°C° 0.1 mm 6 mps 743 mmHg 85%

    19 December, Wednesday

    Time Temperature Precipitation Wind Pressure Humidity
    00:00 +5°C° 0.1 mm 6 mps 743 mmHg 85%
    01:00 +5°C° 0.1 mm 6 mps 743 mmHg 85%
    02:00 +5°C° 0.1 mm 6 mps 743 mmHg 85%
    03:00 +5°C° 0.1 mm 6 mps 743 mmHg 84%
    04:00 +5°C° 0.1 mm 6 mps 743 mmHg 84%
    05:00 +5°C° 0.1 mm 6 mps 743 mmHg 84%
    06:00 +4°C° 0.1 mm 6 mps 743 mmHg 84%
    07:00 +5°C° 0 mm 6 mps 743 mmHg 84%
    08:00 +5°C° 0 mm 6 mps 743 mmHg 83%
    09:00 +5°C° 0 mm 7 mps 743 mmHg 82%
    10:00 +5°C° 0 mm 7 mps 742 mmHg 80%
    11:00 +6°C° 0 mm 8 mps 742 mmHg 77%
    12:00 +7°C° 0 mm 8 mps 742 mmHg 74%
    13:00 +7°C° 0.2 mm 8 mps 741 mmHg 75%
    14:00 +7°C° 0.2 mm 8 mps 741 mmHg 77%
    15:00 +6°C° 0.2 mm 8 mps 741 mmHg 78%
    16:00 +6°C° 0.2 mm 8 mps 741 mmHg 79%
    17:00 +6°C° 0.2 mm 8 mps 741 mmHg 81%
    18:00 +6°C° 0.2 mm 7 mps 741 mmHg 82%
    19:00 +5°C° 0 mm 7 mps 741 mmHg 82%
    20:00 +5°C° 0 mm 7 mps 741 mmHg 82%
    21:00 +5°C° 0 mm 6 mps 741 mmHg 83%
    22:00 +5°C° 0 mm 6 mps 741 mmHg 82%
    23:00 +5°C° 0 mm 6 mps 741 mmHg 82%
    Show more